map of VXC home
VXC - Airport
Location
City:  Lichinga, Niassa, Mozambique
Name:Lichinga Airport
ICAO:FQLC
IATA:VXC

Details
Type:Airport (Aerodrome, Airfield)
Use:Public/Civil
Latitude:1316'26"S (-13.273985)
Longitude:3515'59"E (35.266262)
Datum:WGS 1984
Elevation:4505 ft (1373 m)
Variation:5.32W (WMM2015v2 magnetic declination)
-0.04 annual change
Runways:1
Longest:8300 × 148 ft (2530 × 45 m), paved

Time
Time Zone:UTC+2
Local Time:

Weather
METAR:FQLC 041400Z 20006KT 4000 TSRA SCT004 BKN014 FEW020CB BKN070 20/19 Q1018 RMK CB TO ALL/D
TAF:FQLC 041000Z 0412/0512 VRB03KT 9999 FEW010 BKN016 FEW020CB BKN050 TX23/0413Z TN17/0503Z PROB30
TEMPO 0412/0418 5000 -TSRA SCT008 BKN015 FEW020CB
BECMG 0418/0420 07004KT BKN020 FEW025CB
BECMG 0500/0502 VRB03KT
BECMG 0506/0508 05006KT

Related Locations
Nearby:
Farthest:ITO: 11628 mi / 18714 km
Hilo [Hilo Intl], Hawaii, HI, US

Find:

   beyond  
but within

Other Information
Maps:
NOTAMs:
Links:
Sources:

  
  • flag of Mozambique
  

Sectional Chart

Flight Planning
at skyvector.com

Satellite Image

Google Maps Satellite view

 

Copyright © 2004-2019 Karl L. Swartz. All rights reserved.
The Great Circle Mapper name and logo are trademarks of the Great Circle Mapper.
All other trademarks mentioned herein belong to their respective owners.
Please see credits for attibutions and further copyright information.

  Follow gcmap on Facebook Follow gcmap on Twitter GCmap on LinkedIn

hCard Microformat

Geo Microformat